This is the latest recevied weather packets stored in our database for station/object DL7HMX-13. If no packets are shown the sender has not sent any weather packets the latest 10 day(s).
| Time | Temp. | Humidity | Pressure | Rain* | Wind** | Luminosity | Snow |
|---|---|---|---|---|---|---|---|
| 1777755625 | 11.67° C | 63% | 1018.3 hPa | 0 mm | - | 0 W/m² | - |
| 1777755028 | 11.67° C | 63% | 1018.3 hPa | 0 mm | - | 0 W/m² | - |
| 1777754430 | 11.67° C | 62% | 1018.3 hPa | 0 mm | - | 0 W/m² | - |
| 1777753817 | 12.22° C | 60% | 1018.4 hPa | 0 mm | - | 0 W/m² | - |
| 1777753221 | 12.78° C | 55% | 1018.4 hPa | 0 mm | - | 0 W/m² | - |
| 1777752623 | 12.78° C | 53% | 1018.4 hPa | 0 mm | - | 0 W/m² | - |
| 1777752026 | 13.33° C | 51% | 1018.4 hPa | 0 mm | - | 0 W/m² | - |
| 1777751429 | 13.89° C | 51% | 1018.3 hPa | 0 mm | - | 0 W/m² | - |
| 1777750832 | 13.89° C | 53% | 1018.2 hPa | 0 mm | - | 0 W/m² | - |
| 1777750218 | 14.44° C | 54% | 1018.2 hPa | 0 mm | - | 0 W/m² | - |
| 1777749622 | 15° C | 50% | 1018.2 hPa | 0 mm | - | 0 W/m² | - |
| 1777749025 | 15.56° C | 44% | 1018.1 hPa | 0 mm | - | 0 W/m² | - |
| 1777748426 | 16.11° C | 42% | 1018 hPa | 0 mm | - | 0 W/m² | - |
| 1777747830 | 16.11° C | 40% | 1018 hPa | 0 mm | - | 0 W/m² | - |
| 1777747216 | 18.33° C | 36% | 1017.9 hPa | 0 mm | - | 0 W/m² | - |
| 1777746619 | 17.78° C | 35% | 1017.7 hPa | 0 mm | - | 1 W/m² | - |
| 1777746024 | 19.44° C | 33% | 1017.7 hPa | 0 mm | - | 3 W/m² | - |
| 1777745425 | 18.89° C | 33% | 1017.8 hPa | 0 mm | - | 6 W/m² | - |
| 1777744827 | 20° C | 31% | 1017.7 hPa | 0 mm | - | 10 W/m² | - |
| 1777744230 | 21.11° C | 29% | 1017.8 hPa | 0 mm | - | 15 W/m² | - |
| 1777743617 | 22.22° C | 26% | 1017.8 hPa | 0 mm | - | 24 W/m² | - |
| 1777743021 | 22.22° C | 24% | 1017.8 hPa | 0 mm | - | 28 W/m² | - |
| 1777742423 | 22.78° C | 24% | 1017.8 hPa | 0 mm | - | 40 W/m² | - |
| 1777741825 | 23.33° C | 24% | 1017.9 hPa | 0 mm | - | 55 W/m² | - |
| 1777741228 | 23.89° C | 23% | 1017.8 hPa | 0 mm | - | 66 W/m² | - |
* Rain latest hour (hover to see other rain measurements)
** Current wind speed in m/s (hover to see current wind gust speed)